Location: Eymir
(36.7333°N, 29.7833°E)
Time: 23:20:21
(UTC+00:00)

Cosmos 909 Rocket - Visible Passes

Search period start: 18 April 2026 00:00
Search period end: 28 April 2026 00:00
Orbit: 991 x 2088 km, 65.9° (Epoch: 18 April)

Date Brightness Start Highest point End Pass type
(mag) Time Alt. Az. Time Alt. Az. Time Alt. Az.
18 Apr 4.8 00:13:55 43° NNW 00:13:55 43° NNW 00:18:54 10° NNE visible
18 Apr 4.9 23:36:31 44° N 23:36:31 44° N 23:40:44 10° NNE visible
19 Apr 6.1 01:33:45 10° WNW 01:36:02 12° NW 01:38:20 10° NNW visible
19 Apr 5.4 22:59:07 33° NE 22:59:07 33° NE 23:02:24 10° NNE visible
20 Apr 5.8 00:56:00 17° WNW 00:57:07 18° NW 01:01:14 10° N visible
20 Apr 5.9 22:21:41 22° NE 22:21:41 22° NE 22:23:53 10° NE visible
21 Apr 5.4 00:18:34 26° NW 00:18:34 26° NW 00:23:34 10° N visible
21 Apr 6.3 21:44:14 14° NE 21:44:14 14° NE 21:45:04 10° NE visible
21 Apr 5.2 23:41:06 35° NNW 23:41:06 35° NNW 23:45:38 10° NNE visible
22 Apr 5.2 23:03:37 38° N 23:03:37 38° N 23:07:31 10° NNE visible
23 Apr 5.5 22:26:05 32° NNE 22:26:05 32° NNE 22:29:17 10° NNE visible
24 Apr 6.1 00:22:58 14° NW 00:24:15 15° NW 00:27:38 10° N visible
24 Apr 5.8 21:48:33 24° NE 21:48:33 24° NE 21:50:51 10° NE visible
24 Apr 5.7 23:45:26 21° NW 23:45:26 21° NW 23:50:09 10° N visible
25 Apr 6.2 21:10:59 16° NE 21:10:59 16° NE 21:12:12 10° NE visible
25 Apr 5.4 23:07:50 30° NNW 23:07:50 30° NNW 23:12:19 10° N visible
26 Apr 5.3 22:30:14 36° N 22:30:14 36° N 22:34:18 10° NNE visible
27 Apr 5.3 21:52:36 35° NNE 21:52:36 35° NNE 21:56:07 10° NNE visible
27 Apr 6.3 23:49:27 11° NW 23:51:27 12° NW 23:53:49 10° NNW visible
